[[{"header":{"parameterUnit":"m.s-1","parameterCategory":1,"la1":30.2991,"la2":30.254,"lo1":-89.0895,"lo2":-89.0444,"dy":0.0017,"dx":0.0017,"nx":28,"ny":28,"refTime":"2025-04-08T03:00:00:Z","depth":0,"parameterNumber":2,"parameterNumberName":"U-component_of_WINDS"},"data":[0,0,0,0,0,0,0,0,0,0,0,0,0,0,0,0,0,0,0,0,0,0,0,0,0,0,0,0,0,0,0,0,0,0,0,0,0,0,0,0,0,0,0,0,0,0,0,0,0,0,0,0,0,0,0,0,0,0,3.5834,3.5835,0,3.5898,3.5899,3.59,3.5845,3.5842,3.584,3.5838,3.5902,3.5906,3.591,0,0,0,0,0,0,0,0,0,0,0,0,0,3.5663,3.5667,3.5834,3.5835,3.5836,3.5898,3.5899,3.59,3.5845,3.5842,3.5839,3.5837,3.5901,3.5905,3.591,0,0,0,0,0,0,0,0,0,0,0,0,0,3.5733,3.5668,3.5834,3.5816,3.5815,3.5898,3.5899,3.59,3.5846,3.5842,3.5839,3.5836,3.5899,3.5905,3.5911,3.6014,0,0,3.5928,3.5931,0,0,0,0,0,0,0,0,3.5729,3.574,3.5818,3.5817,3.5816,3.586,3.5862,3.5938,3.5846,3.5834,3.5838,3.5834,3.5891,3.5897,3.5916,3.6017,3.602,3.5929,3.5932,3.5935,3.5936,0,0,0,0,0,0,0,3.5725,3.5737,3.5859,3.5819,3.5818,3.5804,3.581,3.5876,3.5881,3.5835,3.5831,3.5839,3.589,3.5911,3.5918,3.6021,3.5929,3.5934,3.5937,3.594,3.6209,3.6213,0,0,0,0,0,0,3.5722,3.5733,3.5857,3.5861,3.5764,3.581,3.5817,3.5849,3.588,3.5881,3.5842,3.5836,3.5903,3.5911,3.592,3.6042,3.5935,3.594,3.5943,3.6206,3.621,3.6214,0,0,0,0,0,0,3.5718,3.5733,3.5855,3.5796,3.581,3.5817,3.5853,3.5852,3.5874,3.5885,3.5886,3.5863,3.5901,3.5912,3.5991,3.6043,3.5943,3.5948,3.6201,3.6207,3.6212,3.6288,0,0,0,0,0,0,3.5714,3.5732,3.5772,3.5797,3.5814,3.5926,3.5857,3.5856,3.5884,3.5877,3.5905,3.5907,3.5899,3.5983,3.5997,3.6049,3.5952,3.6196,3.6204,3.621,3.6281,3.6295,3.6308,0,0,0,0,0,3.5708,3.5791,3.5775,3.579,3.5864,3.5929,3.5938,3.5928,3.5888,3.5928,3.5935,3.5906,3.6036,3.5991,3.6007,3.6062,3.6193,3.6202,3.621,3.6275,3.6293,3.6308,0,0,0,0,0,0,3.5771,3.5794,3.5776,3.587,3.5898,3.5919,3.5969,3.5947,3.5987,3.5979,3.5964,3.597,3.6054,3.6066,3.6016,3.6163,3.6108,3.612,3.6152,3.6169,3.6183,3.6177,3.5957,0,0,0,0,0,3.5797,3.5848,3.5865,3.5946,3.5961,3.5963,3.5991,3.5981,3.6009,3.602,3.6033,3.6062,3.6109,3.614,3.6184,3.6283,3.6287,3.6328,3.6342,3.6353,3.6363,3.6415,3.6433,3.6242,3.6241,3.6241,0,0,3.5849,3.5867,3.5901,3.5959,3.598,3.6033,3.5973,3.6032,3.6071,3.6029,3.6104,3.6116,3.6146,3.6235,3.6275,3.6248,3.6417,3.6364,3.6373,3.6376,3.6425,3.6443,3.6459,3.6247,3.6246,3.6245,0,0,3.597,3.599,3.606,3.6081,3.6113,3.6114,3.6131,3.6156,3.6162,3.6237,3.6207,3.6253,3.6335,3.6357,3.6379,3.651,3.6483,3.6525,3.6595,3.6646,3.6661,3.6674,3.6719,3.6736,3.6535,3.6535,3.6535,0,3.6031,3.6109,3.6098,3.6159,3.6185,3.615,3.622,3.6242,3.6286,3.6305,3.6274,3.6375,3.6394,3.6487,3.6519,3.6539,3.6556,3.6521,3.666,3.6673,3.6685,3.6728,3.6745,3.654,3.6539,3.6539,3.6538,0,3.6182,3.6237,3.6289,3.6333,3.6365,3.6431,3.6428,3.6462,3.645,3.6453,3.6531,3.6551,3.6598,3.662,3.6608,3.6712,3.6694,3.6662,3.6606,3.6708,3.6748,3.6764,3.6547,3.6545,3.6543,3.6542,0,0,3.6344,3.6381,3.64,3.6419,3.6452,3.6494,3.6558,3.6604,3.6633,3.6665,3.6717,3.6787,3.6758,3.6783,3.6773,3.6818,3.6918,3.678,3.6781,3.6804,3.7032,3.7054,3.7074,3.6902,3.6905,3.6907,3.7029,0,3.6465,3.6575,3.6567,3.6671,3.6721,3.6689,3.6744,3.677,3.6775,3.6818,3.6824,3.6873,3.6832,3.6846,3.689,3.6897,3.6964,3.6888,3.6948,3.6951,3.694,3.7095,3.7119,3.7232,3.7045,3.7047,3.7049,0,3.6621,3.6659,3.6768,3.6792,3.6813,3.6863,3.6904,3.6946,3.6975,3.6975,3.7004,3.6987,3.705,3.6994,3.708,3.7029,3.7053,3.706,3.7064,3.7068,3.7005,3.71,3.7268,3.7285,3.7074,3.7072,3.707,0,3.6727,3.6805,3.6879,3.6897,3.6928,3.6964,3.6978,3.7003,3.7032,3.7068,3.7086,3.7129,3.7153,3.7186,3.7181,3.7141,3.7268,3.7212,3.7269,3.7269,3.7295,3.7294,3.7468,3.7315,3.7315,3.7314,3.7314,0,3.6862,3.6929,3.6927,3.6973,3.7047,3.7037,3.7111,3.7121,3.7144,3.719,3.7166,3.721,3.7202,3.7246,3.7242,3.7313,3.7324,3.7325,3.7323,3.7326,3.7326,3.734,3.7332,3.7319,3.7318,3.7317,3.7316,0,3.6991,3.6993,3.7072,3.7095,3.7102,3.7156,3.7175,3.7218,3.7222,3.7281,3.7295,3.7301,3.7351,3.735,3.7407,3.7405,3.7491,3.7481,3.7481,3.7478,3.7535,3.7529,3.7723,3.7747,3.7581,3.7582,3.7584,0,3.7077,3.7128,3.7156,3.7186,3.7203,3.7251,3.728,3.7272,3.7303,3.7339,3.7377,3.7426,3.7463,3.7546,3.7555,3.7598,3.7587,3.7652,3.7594,3.7595,3.7586,3.7582,3.7586,3.7663,3.7665,3.7667,3.7668,0,3.7227,3.7225,3.7268,3.7311,3.7346,3.7379,3.741,3.7435,3.7431,3.7466,3.7518,3.7548,3.7606,3.7654,3.7696,3.771,3.7688,3.7687,3.7702,3.7704,3.7702,3.7702,3.751,3.7682,3.768,3.7679,3.7679,3.7678,3.7336,3.7379,3.7406,3.7454,3.7476,3.7505,3.7546,3.7555,3.7598,3.7645,3.7638,3.7695,3.7722,3.7776,3.7794,3.7838,3.7815,3.7837,3.7843,3.7848,3.7853,3.7697,3.7846,3.7846,3.7845,3.7845,3.7845,0,3.7484,3.7499,3.7544,3.7587,3.7625,3.7602,3.7634,3.7667,3.7718,3.7745,3.7783,3.7841,3.7887,3.79,3.7945,3.7977,3.7968,3.7989,3.7985,3.7988,3.7872,3.7854,3.7995,3.7995,3.7995,3.7995,3.7995,3.7995,3.7565,3.7636,3.7638,3.772,3.7735,3.7791,3.7811,3.7837,3.7859,3.7925,3.7964,3.7972,3.7993,3.8039,3.808,3.8082,3.8099,3.8123,3.8121,3.8012,3.7997,3.7982,3.7965,3.8127,3.8128,3.8233,3.8234,3.8235]},{"header":{"parameterUnit":"m.s-1","parameterCategory":1,"la1":30.2991,"la2":30.254,"lo1":-89.0895,"lo2":-89.0444,"dy":0.0017,"dx":0.0017,"nx":28,"ny":28,"refTime":"2025-04-08T03:00:00:Z","depth":0,"parameterNumber":3,"parameterNumberName":"V-component_of_WINDS"},"data":[0,0,0,0,0,0,0,0,0,0,0,0,0,0,0,0,0,0,0,0,0,0,0,0,0,0,0,0,0,0,0,0,0,0,0,0,0,0,0,0,0,0,0,0,0,0,0,0,0,0,0,0,0,0,0,0,0,0,-4.921,-4.9213,0,-4.9451,-4.9454,-4.9457,-4.9434,-4.943,-4.9426,-4.9423,-4.9671,-4.9681,-4.9691,0,0,0,0,0,0,0,0,0,0,0,0,0,-4.8732,-4.8741,-4.921,-4.9213,-4.9216,-4.9451,-4.9454,-4.9458,-4.9434,-4.943,-4.9425,-4.9421,-4.9668,-4.968,-4.9692,0,0,0,0,0,0,0,0,0,0,0,0,0,-4.8953,-4.8744,-4.921,-4.9233,-4.9237,-4.945,-4.9454,-4.9459,-4.9435,-4.943,-4.9424,-4.9419,-4.9664,-4.9678,-4.9693,-4.9899,0,0,-4.974,-4.9746,0,0,0,0,0,0,0,0,-4.894,-4.8971,-4.9226,-4.9232,-4.9237,-4.9407,-4.9377,-4.9606,-4.9437,-4.936,-4.9422,-4.9416,-4.9588,-4.9609,-4.9666,-4.9911,-4.9922,-4.9741,-4.975,-4.9757,-4.9761,0,0,0,0,0,0,0,-4.8925,-4.896,-4.9306,-4.923,-4.9237,-4.9232,-4.9257,-4.942,-4.9503,-4.9366,-4.9365,-4.9394,-4.9589,-4.9652,-4.9672,-4.9925,-4.9741,-4.9754,-4.9763,-4.9769,-5.0353,-5.0359,0,0,0,0,0,0,-4.8904,-4.8947,-4.9298,-4.9313,-4.9072,-4.9245,-4.9273,-4.9358,-4.9501,-4.9517,-4.9399,-4.9392,-4.9629,-4.9654,-4.9681,-4.9933,-4.9757,-4.9771,-4.978,-5.0347,-5.0354,-5.0361,0,0,0,0,0,0,-4.8894,-4.8935,-4.9288,-4.913,-4.9175,-4.9259,-4.9355,-4.9366,-4.9428,-4.9525,-4.954,-4.9447,-4.9625,-4.9659,-4.9846,-4.9941,-4.9778,-4.9791,-5.0339,-5.0349,-5.0358,-5.0438,0,0,0,0,0,0,-4.888,-4.8932,-4.9011,-4.9132,-4.9183,-4.9449,-4.936,-4.9374,-4.9454,-4.9448,-4.9574,-4.959,-4.9623,-4.9823,-4.9861,-4.9959,-4.9803,-5.0331,-5.0343,-5.0355,-5.0427,-5.0449,-5.0468,0,0,0,0,0,-4.8863,-4.9024,-4.9015,-4.9057,-4.9283,-4.9454,-4.9484,-4.9519,-4.9462,-4.9542,-4.9605,-4.9586,-4.9924,-4.9842,-4.9884,-4.9989,-5.0325,-5.034,-5.0354,-5.0418,-5.0444,-5.0467,0,0,0,0,0,0,-4.8912,-4.904,-4.9032,-4.9236,-4.9334,-4.945,-4.9552,-4.9545,-4.9663,-4.9652,-4.9691,-4.9719,-4.9908,-4.9966,-4.9873,-5.0196,-5.0117,-5.0141,-5.0151,-5.0177,-5.0197,-5.018,-4.9816,0,0,0,0,0,-4.8946,-4.9074,-4.9179,-4.9349,-4.9399,-4.9467,-4.9543,-4.9561,-4.9665,-4.9707,-4.9783,-4.9885,-5.0014,-5.0099,-5.0223,-5.0435,-5.0463,-5.0527,-5.0547,-5.0564,-5.0584,-5.0702,-5.0732,-5.0409,-5.0409,-5.0408,0,0,-4.9019,-4.9105,-4.9183,-4.9361,-4.944,-4.9572,-4.9503,-4.9645,-4.9744,-4.9729,-4.991,-4.9969,-5.0085,-5.0286,-5.0378,-5.0341,-5.068,-5.0582,-5.0594,-5.0606,-5.072,-5.0751,-5.0778,-5.0418,-5.0417,-5.0415,0,0,-4.9219,-4.9296,-4.9447,-4.9527,-4.9647,-4.9691,-4.9727,-4.9845,-4.9884,-5.0065,-5.0057,-5.0175,-5.0397,-5.0481,-5.0552,-5.0785,-5.0773,-5.0824,-5.0931,-5.1045,-5.1071,-5.1094,-5.1178,-5.1208,-5.0844,-5.0844,-5.0844,0,-4.9295,-4.9493,-4.9526,-4.967,-4.975,-4.9741,-4.9895,-4.9971,-5.0126,-5.0181,-5.0137,-5.0416,-5.0493,-5.0714,-5.0771,-5.0828,-5.0872,-5.0811,-5.1064,-5.1088,-5.1109,-5.1191,-5.1222,-5.085,-5.0849,-5.0848,-5.0848,0,-4.9581,-4.9719,-4.9826,-4.9975,-5.0067,-5.0215,-5.0271,-5.0359,-5.037,-5.0419,-5.0605,-5.0698,-5.0841,-5.0895,-5.0906,-5.1118,-5.1091,-5.1055,-5.0977,-5.1145,-5.1222,-5.1254,-5.0858,-5.0856,-5.0854,-5.0853,0,0,-4.982,-4.9985,-5.0024,-5.0092,-5.0223,-5.0331,-5.0479,-5.0619,-5.0695,-5.0802,-5.0928,-5.1116,-5.1084,-5.1166,-5.1186,-5.1287,-5.1467,-5.1239,-5.1242,-5.1279,-5.1707,-5.1735,-5.177,-5.1459,-5.1465,-5.147,-5.1698,0,-5.0035,-5.0297,-5.0331,-5.0564,-5.0692,-5.0686,-5.0815,-5.0911,-5.0961,-5.1077,-5.1133,-5.1266,-5.1213,-5.1262,-5.1361,-5.1424,-5.1554,-5.1408,-5.1578,-5.1584,-5.1551,-5.181,-5.1839,-5.205,-5.1728,-5.1733,-5.1737,0,-5.0321,-5.0435,-5.0681,-5.0795,-5.085,-5.0966,-5.1098,-5.1209,-5.1317,-5.1346,-5.1438,-5.1446,-5.16,-5.1514,-5.1728,-5.1629,-5.17,-5.1742,-5.1751,-5.1769,-5.1672,-5.1837,-5.2118,-5.2151,-5.1784,-5.1781,-5.1777,0,-5.0472,-5.0688,-5.0863,-5.0921,-5.1059,-5.114,-5.1202,-5.1304,-5.1386,-5.1501,-5.1555,-5.1687,-5.176,-5.1862,-5.1906,-5.1838,-5.2118,-5.2035,-5.2148,-5.2147,-5.2209,-5.2205,-5.2507,-5.2252,-5.2251,-5.2251,-5.225,0,-5.071,-5.0861,-5.0933,-5.1041,-5.121,-5.1248,-5.1415,-5.1473,-5.1564,-5.1684,-5.1686,-5.1799,-5.185,-5.1971,-5.2006,-5.2179,-5.2211,-5.224,-5.2248,-5.2241,-5.2238,-5.229,-5.2277,-5.2259,-5.2257,-5.2256,-5.2254,0,-5.0909,-5.0963,-5.1154,-5.1268,-5.13,-5.142,-5.1519,-5.1624,-5.1672,-5.1824,-5.1862,-5.1939,-5.2081,-5.2135,-5.2308,-5.2332,-5.2533,-5.2528,-5.2497,-5.2499,-5.261,-5.26,-5.2958,-5.3008,-5.2718,-5.2721,-5.2723,0,-5.1057,-5.1174,-5.13,-5.138,-5.1444,-5.1574,-5.1657,-5.1699,-5.1786,-5.1918,-5.2008,-5.215,-5.2266,-5.2494,-5.2566,-5.2699,-5.2698,-5.2814,-5.2718,-5.2708,-5.2702,-5.2696,-5.2708,-5.2833,-5.2836,-5.2838,-5.284,0,-5.1317,-5.1338,-5.1458,-5.1589,-5.1689,-5.1794,-5.1896,-5.1962,-5.2018,-5.2117,-5.2262,-5.2352,-5.2529,-5.2671,-5.2808,-5.2871,-5.2867,-5.287,-5.2903,-5.2899,-5.2876,-5.2892,-5.2547,-5.2862,-5.286,-5.2858,-5.2857,-5.2856,-5.1497,-5.16,-5.1705,-5.184,-5.1921,-5.2016,-5.2121,-5.2183,-5.2304,-5.2452,-5.2468,-5.2625,-5.2731,-5.2914,-5.2984,-5.3108,-5.3077,-5.3125,-5.3138,-5.315,-5.3159,-5.2855,-5.3133,-5.3132,-5.3132,-5.3131,-5.3131,0,-5.1758,-5.1825,-5.1948,-5.2091,-5.2197,-5.2181,-5.2293,-5.2384,-5.2522,-5.262,-5.2734,-5.2902,-5.3039,-5.3121,-5.3259,-5.3343,-5.3344,-5.3378,-5.3373,-5.3389,-5.3177,-5.3136,-5.3375,-5.3375,-5.3375,-5.3375,-5.3374,-5.3374,-5.1906,-5.208,-5.2114,-5.2329,-5.2396,-5.2549,-5.2615,-5.2703,-5.2782,-5.2969,-5.3083,-5.3135,-5.3228,-5.3373,-5.3499,-5.3519,-5.3571,-5.3608,-5.3626,-5.3428,-5.3403,-5.3379,-5.334,-5.3618,-5.3619,-5.3827,-5.3829,-5.3831]}]]